Regional Weather Roundup
Issued by NWS Upton, NY

Current Version | Previous Version | Graphics & Text | Print | Product List | Glossary Off
Versions: 1 2 3 4 5 6 7 8 9 10 11 12 13 14 15 16 17 18 19 20 21 22 23 24 25 26 27 28 29 30 31 32 33 34 35 36 37 38 39 40 41 42 43 44 45 46 47 48 49 50

000
ASUS41 KOKX 230208
RWROKX

REGIONAL WEATHER ROUNDUP
NATIONAL WEATHER SERVICE NEW YORK NY
1000 PM EDT FRI SEP 22 2017

NOTE: "FAIR" INDICATES FEW OR NO CLOUDS BELOW 12,000 FEET WITH NO
SIGNIFICANT WEATHER AND/OR OBSTRUCTIONS TO VISIBILITY.

NYZ071-072-176-178-NJZ106-104-230300-
NEW YORK CITY METRO AREA

CITY           SKY/WX    TMP DP  RH WIND       PRES   REMARKS
Central Park   CLEAR     74  53  48 NE7       30.00S
Bronx Bot Gard   N/A     72  52  49 NE5       29.97F
LaGuardia APRT PTCLDY    74  56  53 N9        29.96S
Kennedy INTL   PTCLDY    74  55  51 N18       29.96S
Breezy Point     N/A     73 N/A N/A N14G21      N/A
Newark/Liberty PTCLDY    76  51  41 N14G25    29.97S
Teterboro      CLEAR     75  52  44 N10       29.96S
$$

NYZ177-179-078>081-230300-
LONG ISLAND NEW YORK

CITY           SKY/WX    TMP DP  RH WIND       PRES   REMARKS
Jones Beach      N/A     72 N/A N/A N14G21      N/A
Matinecock PT    N/A     72 N/A N/A N14         N/A
Farmingdale    CLEAR     72  57  59 N16       29.95S
MacArthur/ISP  PTCLDY    71  60  68 N18G26    29.94R
Shirley        PTCLDY    72  61  68 N15G25    29.94S
Mt Sinai Harb    N/A     70 N/A N/A N18G25      N/A
Westhampton    CLOUDY    69  59  70 N17G25    29.94S
East Hampton   CLOUDY    65  59  81 N16G25    29.92S
Montauk          N/A     65  62  90 N16G26    29.93S
$$

NYZ052-065-067-230300-
HUDSON VALLEY

CITY           SKY/WX    TMP DP  RH WIND       PRES   REMARKS
White Plains   CLEAR     70  53  54 N13       29.98S
Larchmont Harb   N/A     72 N/A N/A N9          N/A
Croton On Huds   N/A     72 N/A N/A N5G14       N/A
Newburgh       CLEAR     72  52  49 NE14      30.03S
Montgomery     CLEAR     66  52  60 N3        30.02R
Poughkeepsie   CLEAR     64  53  67 CALM      30.01S
Albany         PTCLDY    66  49  54 N7        30.06S
$$

NJZ001-105-106-008-010-013-015-019>022-104-230300-
NEW JERSEY

CITY           SKY/WX    TMP DP  RH WIND       PRES   REMARKS
Newark/Liberty PTCLDY    76  51  41 N14G25    29.97S
Teterboro      CLEAR     75  52  44 N10       29.96S
Caldwell       CLEAR     73  51  46 NE6       30.00R
Somerville     NOT AVBL
Linden         FAIR      76  50  40 N7        29.98R
Perth Amboy      N/A     75 N/A N/A N14         N/A
Sussex         CLEAR     64  60  87 CALM      30.02S
Andover          N/A     63  60  90 CALM      30.03R
Trenton        CLOUDY    73  58  59 N6        29.98R
Millville      CLOUDY    71  63  75 W7        29.97R
Atlantic City  CLOUDY    71  64  78 NW5       29.96R
Wrightstown    MOCLDY    76  59  56 N10       29.95R
Toms River     CLOUDY    71  61  70 NW6       29.97R
Belmar         CLEAR     73  58  59 N9        29.98R
$$

PAZ047>061-062-071-230300-
EASTERN PENNSYLVANIA

CITY           SKY/WX    TMP DP  RH WIND       PRES   REMARKS
Philadelphia   MOCLDY    73  56  54 NW7       29.98R
Allentown      CLEAR     70  51  51 N3        30.02R
Scranton       CLEAR     68  48  48 E7        30.07R
$$

CTZ002-004>006-009-010-012-RIZ004-006-007-MAZ004-011-015-230300-
SOUTHERN NEW ENGLAND
 IN CT

CITY           SKY/WX    TMP DP  RH WIND       PRES   REMARKS
Bradley INTL   MOCLDY    69  53  56 N16G22    30.01S
Hartford       CLOUDY    70  56  61 N10       29.99S
Danbury        PTCLDY    71  56  58 N8        30.00F
Wtrbury/Oxford CLOUDY    68  54  60 N15       30.00F
Norwalk Harbor   N/A     72 N/A N/A N16G22      N/A
Bridgeport     CLEAR     72  58  61 N14G22    29.95S
Meriden        MOCLDY    70  55  59 N10G22    29.98S
New Haven      PTCLDY    70  57  63 N20G29    29.96S
Chester        MOCLDY    68  61  77 N14G24    29.97R
Groton         MOCLDY    65  59  81 N20G29    29.93R
Wilimantic     CLOUDY    66  59  78 N14G26    29.99R

 IN RI

CITY           SKY/WX    TMP DP  RH WIND       PRES   REMARKS
Providence     LGT RAIN  61  60  97 N15       29.97R FOG
Block Island   CLOUDY    62  59  90 N21G35    29.91R
Westerly       CLOUDY    64  60  87 N13G26    29.94R
 IN MA

CITY           SKY/WX    TMP DP  RH WIND       PRES   REMARKS
Boston         DRIZZLE   62  61  96 N23G29    30.00S FOG
Worcester      CLOUDY    61  53  75 N12       30.04R
Westfield      PTCLDY    69  53  56 N14       30.02R
Provincetown   CLOUDY    60  59  96 NE17G23   29.94S FOG
Nantucket      CLOUDY    62  62 100 NE21G33   29.83R FOG
$$

ANZ330-335-338-340-345-350-353-355-230300-
COASTAL MARINE OBSERVATIONS


STATION/POSITION TIME  SKY/WX   TEMP    WIND        PRES    VSBY  WAVE
                                AIR SEA DIR/SP/G                  HT/PER
                 (UTC)          (F)     (DEG/KT/KT) (MB)    (MI)  (FT/S)
NY HARB ENTRANCE 0150            73 70  350/ 16/ 17 1013.1          5/ 8
20 S FIRE ISLAND 0050            69 67   10/ 10/ 12 1013.0          6/ 9
GREAT SOUTH BAY  0130            72 69   10/ 17/ 23   N/A
23 SSW MONTAUK P 0050            64 65              1012.1          7/ 7
15 E BARNEGAT LI 0130               69                N/A           6/ 9
HUDSON CANYON    0150            67 69   10/ 23/ 27 1011.4          9/ 8
KINGS POINT      0124            73 71   40/ 13/ 18 1015.4
EXECUTION ROCKS  0145            74      20/ 14/ 17   N/A
WESTERN LI SOUND NOT AVBL
CENTRAL LI SOUND 0115            70      20/ 17/ 23   N/A           3
EASTERN LI SOUND NOT AVBL
ROBBINS REEF     0136            76     360/ 18/ 21 1015.3
$$


>>>>>>>>>>>>>>>>>>>>>>>>>>>> KEY <<<<<<<<<<<<<<<<<<<<<<<<<<<
>                                                          <
>     SKY/WX - Sky Condition/Present Weather               <
>     TMP    - Temperature in Fahrenheit                   <
>     DP     - Dew Point in Fahrenheit                     <
>     RH     - Relative Humidity in Percent                <
>     WIND   - Direction (from) and Speed in MPH           <
>     PRES   - Mean Sea Level Pressure (inches of Hg)      <
>     WCI    - Wind Chill Index                            <
>     VSB    - VISIBILITY IN MILES                         <
>     HX     - HEAT INDEX                                  <
>     TC     - TEMPERATURE IN CELSIUS                      <
>     VRB    - VARIABLE WIND DIRECTION                     <
>                                                          <
>>>>>>>>>>>>>>>>>>>>>>>>>>>> KEY <<<<<<<<<<<<<<<<<<<<<<<<<<<



USA.gov is the U.S. government's official web portal to all federal, state and local government web resources and services.